Location: *
(55.6049°S, 142.1985°W)
Time: 00:56:54
(UTC+00:00)

Cosmos 1741 Rocket - Pass Details

Date: 12 May 2021
Orbit: 762 x 782 km, 74.0° (Epoch: 18 June)

Event Time Altitude Azimuth Distance (km) Brightness Sun altitude
Rises 16:02:04 0° 338° (NNW) 3,255 7.2 -10.0°
Reaches altitude 10° 16:04:25 10° 339° (NNW) 2,338 6.5 -9.7°
Maximum altitude 16:09:45 81° 64° (ENE) 807 4.2 -8.9°
Drops below altitude 10° 16:15:10 10° 151° (SSE) 2,376 6.7 -8.2°
Sets 16:17:35 0° 151° (SSE) 3,312 7.4 -7.9°
